Home   Weather   Nordhausen   Past weeks

Flag for Germany Past Weather in Nordhausen, Thuringia, Germany — Yesterday and Last 2 Weeks

Now
59 °F

Clear.


Feels Like: 56 °F
Forecast: 51 / 65 °F
Wind: 15 mph from Southwest

Location: Erfurt-Bindersleben

Current Time: Aug 19, 2017 at 4:02:37 am

Latest Report: Aug 19, 2017 at 2:50 am


Visibility: 10 mi

Pressure: 29.95 "Hg

Humidity: 88%

Dew Point: 55 °F

Location of NordhausenLocation

Past Weather in Nordhausen — Graph

°F

Nordhausen Temperature Yesterday

Maximum temperature yesterday: 79 °F (at 3:03 pm)
Minimum temperature yesterday: 61 °F (at 9:50 pm)
Average temperature yesterday: 69 °F

High & Low Weather Summary for the Past Weeks

 TemperatureHumidityPressure
High82 °F (Aug 15, 2:50 pm)100% (Aug 10, 5:20 am)30.24 "Hg (Aug 10, 5:20 am)
Low50 °F (Aug 7, 3:20 am)34% (Aug 7, 5:20 pm)29.83 "Hg (Aug 8, 12:50 pm)
Average65 °F74%30.04 "Hg
* Reported Aug 4 2:20 am — Aug 19 2:50 am, Nordhausen. Weather by CustomWeather, © 2017

Note: Actual official high and low records may vary slightly from our data, if they occured in-between our weather recording intervals... More about our weather records

Advertising

Nordhausen Weather History for the Previous 24 Hours

Scroll right to see more
 ConditionsComfort  
Time TempWeatherWind HumidityBarometerVisibility
2:50 am
Sat, Aug 19
59 °FClear.15 mph88%29.95 "Hg10 mi
2:20 am59 °FClear.10 mph88%29.95 "Hg10 mi
1:50 am59 °FPassing clouds.14 mph88%29.95 "HgN/A
1:20 am59 °FPassing clouds.15 mph88%29.95 "HgN/A
12:50 am61 °FPassing clouds.9 mph88%29.98 "HgN/A
12:20 am61 °FPartly cloudy.6 mph94%29.98 "HgN/A
11:50 pm
Fri, Aug 18
61 °FPartly cloudy.8 mph94%29.95 "HgN/A
11:20 pm61 °FPassing clouds.8 mph94%29.95 "HgN/A
10:50 pm61 °FPassing clouds.14 mph94%29.95 "HgN/A
10:20 pm61 °FClear.13 mph94%29.92 "Hg10 mi
9:50 pm61 °FClear.9 mph94%29.89 "Hg10 mi
9:20 pm63 °FLight rain. Passing clouds.13 mph88%29.92 "HgN/A
8:50 pm63 °FLight rain. Passing clouds.15 mph88%29.89 "HgN/A
8:20 pm63 °FPartly sunny.13 mph88%29.89 "HgN/A
7:50 pm64 °FSprinkles. Broken clouds.15 mph88%29.86 "HgN/A
7:20 pm66 °FSprinkles. Scattered clouds.24 mph88%29.89 "HgN/A
6:50 pm72 °FSprinkles. Partly sunny.15 mph73%29.83 "HgN/A
6:31 pm73 °FThundershowers. Partly sunny.12 mph69%29.83 "HgN/A
6:20 pm73 °FSprinkles. Partly sunny.10 mph69%29.83 "HgN/A
5:50 pm77 °FScattered showers. Scattered clouds.15 mph57%29.83 "HgN/A
5:20 pm77 °FBroken clouds.15 mph57%29.83 "HgN/A
4:50 pm77 °FBroken clouds.15 mph57%29.86 "HgN/A
4:20 pm77 °FScattered clouds.16 mph57%29.86 "HgN/A
3:50 pm77 °FScattered clouds.15 mph57%29.89 "HgN/A
3:20 pm77 °FScattered clouds.18 mph54%29.89 "HgN/A
3:03 pm79 °FScattered clouds.17 mph54%29.89 "HgN/A
2:20 pm77 °FBroken clouds.14 mph57%29.92 "HgN/A
1:50 pm75 °FBroken clouds.15 mph61%29.92 "HgN/A
1:20 pm77 °FPassing clouds.12 mph61%29.95 "HgN/A
12:50 pm73 °FBroken clouds.7 mph69%29.95 "HgN/A
12:20 pm72 °FLight rain. Partly sunny.8 mph73%29.95 "HgN/A
11:50 am72 °FSunny.10 mph69%29.95 "Hg10 mi
11:20 am73 °FPassing clouds.12 mph65%29.98 "HgN/A
10:50 am73 °FSunny.12 mph61%29.98 "Hg10 mi
10:20 am73 °FPassing clouds.9 mph65%29.98 "HgN/A
9:50 am72 °FSunny.8 mph69%29.98 "Hg10 mi
9:20 am72 °FSunny.8 mph69%29.98 "Hg10 mi
8:50 am72 °FPassing clouds.8 mph69%29.98 "HgN/A
8:20 am70 °FSunny.7 mph73%29.98 "Hg10 mi
7:50 am66 °FSunny.2 mph83%29.98 "Hg10 mi
7:20 am66 °FSunny.6 mph78%30.01 "Hg10 mi
6:50 am64 °FSunny.8 mph83%30.01 "Hg10 mi
6:20 am63 °FSunny.7 mph88%30.01 "Hg10 mi
5:50 am63 °FPassing clouds.8 mph88%30.01 "HgN/A
5:20 am64 °FClear.8 mph83%30.01 "Hg10 mi
4:50 am64 °FClear.7 mph83%30.01 "Hg10 mi
4:20 am63 °FClear.7 mph88%30.01 "Hg10 mi
Weather by CustomWeather, © 2017

See weather overviewHow to use our weather pages